Metz/Nancy, France

10:46 AM CET on December 10, 2016 (GMT +0100)
Metz-Nancy / Lorraine

Weather History for LFJL - January, 2013

Change the Weather History Date:

Sunday, January 13, 2013

  Actual Average Record
Temperature  
Mean Temperature 29 °F -  
Max Temperature 32 °F - - ()
Min Temperature 26 °F - - ()
Degree Days  
Heating Degree Days 36    
Moisture  
Dew Point 25 °F    
Average Humidity 83    
Maximum Humidity 93    
Minimum Humidity 75    
Precipitation  
Precipitation 0.00 in - - ()
Sea Level Pressure  
Sea Level Pressure 29.92 in    
Wind  
Wind Speed 8 mph ()    
Max Wind Speed 13 mph    
Max Gust Speed -    
Visibility 6.1 miles    
Events      
T = Trace of Precipitation, MM = Missing Value Source: Averaged Metar Reports

Daily Weather History Graph

Daily Weather History Graph

Search for Another Location

Airport or City:

Trip Planner

Search our weather history database for the weather conditions in past years. The results will help you decide how hot, cold, wet, or windy it might be!

Date:

Astronomy

Jan. 13, 2013 Rise Set
Actual Time 8:24 AM CET 5:03 PM CET
Civil Twilight 7:48 AM CET 5:39 PM CET
Nautical Twilight 7:09 AM CET 6:18 PM CET
Astronomical Twilight 6:31 AM CET 6:56 PM CET
Moon 9:00 AM CET (1/13) 7:38 PM CET (1/13)
Length of Visible Light 9h 50m
Length of Day
8h 38m
Waxing Crescent, 4% of the Moon is Illuminated
Jan 13
Waxing Crescent
Jan 19
First Quarter
Jan 27
Full
Feb 3
Last Quarter
Feb 10
New

Hourly Weather History & Observations

Time (CET) Temp. Windchill Dew Point Humidity Pressure Visibility Wind Dir Wind Speed Gust Speed Precip Events Conditions
12:00 AM 30.2 °F 21.9 °F 26.6 °F 86% 29.95 in 6.2 mi ENE 9.2 mph - N/A   Overcast
12:30 AM 30.2 °F 21.9 °F 26.6 °F 86% 29.92 in 6.2 mi East 9.2 mph - N/A   Unknown
1:00 AM 30.2 °F 22.6 °F 26.6 °F 86% 29.92 in 6.2 mi ENE 8.1 mph - N/A   Unknown
1:30 AM 30.2 °F 21.9 °F 26.6 °F 86% 29.92 in 6.2 mi East 9.2 mph - N/A   Unknown
2:00 AM 30.2 °F 20.2 °F 26.6 °F 86% 29.92 in 6.2 mi East 12.7 mph - N/A   Unknown
2:30 AM 30.2 °F 20.2 °F 24.8 °F 80% 29.92 in 6.2 mi East 12.7 mph - N/A   Unknown
3:00 AM 30.2 °F 20.2 °F 24.8 °F 80% 29.92 in 6.2 mi East 12.7 mph - N/A   Overcast
3:30 AM 30.2 °F 21.9 °F 24.8 °F 80% 29.92 in 6.2 mi ENE 9.2 mph - N/A   Overcast
4:00 AM 30.2 °F 21.3 °F 24.8 °F 80% 29.92 in 6.2 mi ENE 10.4 mph - N/A   Overcast
4:30 AM 30.2 °F 20.8 °F 24.8 °F 80% 29.92 in 6.2 mi East 11.5 mph - N/A   Overcast
5:00 AM 28.4 °F 18.0 °F 24.8 °F 86% 29.92 in 6.2 mi ENE 12.7 mph - N/A   Overcast
5:30 AM 28.4 °F 18.5 °F 24.8 °F 86% 29.92 in 6.2 mi ENE 11.5 mph - N/A   Overcast
6:00 AM 28.4 °F 19.1 °F 24.8 °F 86% 29.92 in 6.2 mi ENE 10.4 mph - N/A   Overcast
6:30 AM 28.4 °F 20.4 °F 24.8 °F 86% 29.92 in 5.6 mi ENE 8.1 mph - N/A   Overcast
7:00 AM 28.4 °F 20.4 °F 24.8 °F 86% 29.92 in 5.6 mi ENE 8.1 mph - N/A   Overcast
7:30 AM 28.4 °F 19.1 °F 24.8 °F 86% 29.92 in 5.6 mi ENE 10.4 mph - N/A   Overcast
8:00 AM 28.4 °F 19.1 °F 24.8 °F 86% 29.92 in 5.6 mi ENE 10.4 mph - N/A   Overcast
8:30 AM 28.4 °F 19.7 °F 24.8 °F 86% 29.92 in 5.6 mi ENE 9.2 mph - N/A   Overcast
9:00 AM 28.4 °F 19.7 °F 24.8 °F 86% 29.92 in 6.2 mi ENE 9.2 mph - N/A   Overcast
9:30 AM 28.4 °F 23.3 °F 24.8 °F 86% 29.92 in 6.2 mi NNE 4.6 mph - N/A   Overcast
10:00 AM 28.4 °F 22.2 °F 24.8 °F 86% 29.92 in 6.2 mi NE 5.8 mph - N/A   Overcast
10:30 AM 28.4 °F 21.2 °F 24.8 °F 86% 29.92 in 6.2 mi NE 6.9 mph - N/A   Overcast
11:00 AM 30.2 °F 21.9 °F 24.8 °F 80% 29.92 in 6.2 mi ENE 9.2 mph - N/A   Overcast
11:30 AM 30.2 °F 21.9 °F 26.6 °F 86% 29.92 in 6.2 mi NE 9.2 mph - N/A   Overcast
12:00 PM 30.2 °F 22.6 °F 26.6 °F 86% 29.92 in 6.2 mi ENE 8.1 mph - N/A   Overcast
12:30 PM 32.0 °F 25.6 °F 26.6 °F 80% 29.92 in 6.2 mi NE 6.9 mph - N/A   Overcast
1:00 PM 32.0 °F 24.2 °F 26.6 °F 80% 29.92 in 6.2 mi NE 9.2 mph - N/A   Overcast
1:30 PM 32.0 °F 24.2 °F 26.6 °F 80% 29.92 in 6.2 mi NE 9.2 mph - N/A   Overcast
2:00 PM 32.0 °F 24.2 °F 26.6 °F 80% 29.89 in 6.2 mi NE 9.2 mph - N/A   Overcast
2:30 PM 32.0 °F 25.6 °F 26.6 °F 80% 29.89 in 6.2 mi ENE 6.9 mph - N/A   Overcast
3:00 PM 32.0 °F 25.6 °F 26.6 °F 80% 29.92 in 6.2 mi NNE 6.9 mph - N/A   Overcast
3:30 PM 32.0 °F 24.8 °F 24.8 °F 75% 29.92 in 6.2 mi NE 8.1 mph - N/A   Overcast
4:00 PM 32.0 °F 24.8 °F 24.8 °F 75% 29.92 in 6.2 mi NE 8.1 mph - N/A   Overcast
4:30 PM 32.0 °F 24.8 °F 26.6 °F 80% 29.92 in 6.2 mi NNE 8.1 mph - N/A   Overcast
5:00 PM 30.2 °F 22.6 °F 24.8 °F 80% 29.92 in 6.2 mi NNE 8.1 mph - N/A   Overcast
5:30 PM 30.2 °F 21.9 °F 24.8 °F 80% 29.92 in 6.2 mi NNE 9.2 mph - N/A   Overcast
6:00 PM 30.2 °F 22.6 °F 24.8 °F 80% 29.92 in 6.2 mi NE 8.1 mph - N/A   Overcast
6:30 PM 30.2 °F 22.6 °F 24.8 °F 80% 29.92 in 6.2 mi NNE 8.1 mph - N/A   Overcast
7:00 PM 30.2 °F 21.3 °F 24.8 °F 80% 29.92 in 6.2 mi NNE 10.4 mph - N/A   Overcast
7:30 PM 30.2 °F 21.9 °F 24.8 °F 80% 29.92 in 6.2 mi NNE 9.2 mph - N/A   Overcast
8:00 PM 28.4 °F 19.7 °F 24.8 °F 86% 29.92 in 6.2 mi NNE 9.2 mph - N/A   Overcast
8:30 PM 28.4 °F 19.7 °F 24.8 °F 86% 29.92 in 6.2 mi NE 9.2 mph - N/A   Unknown
9:00 PM 28.4 °F 20.4 °F 24.8 °F 86% 29.92 in 6.2 mi NE 8.1 mph - N/A   Overcast
9:30 PM 28.4 °F 20.4 °F 24.8 °F 86% 29.92 in 6.2 mi NE 8.1 mph - N/A   Overcast
10:00 PM 28.4 °F 22.2 °F 24.8 °F 86% 29.92 in 6.2 mi NNE 5.8 mph - N/A   Overcast
10:30 PM 28.4 °F 20.4 °F 24.8 °F 86% 29.92 in 6.2 mi NE 8.1 mph - N/A   Overcast
11:00 PM 26.6 °F 19.1 °F 24.8 °F 93% 29.92 in 5.6 mi NNE 6.9 mph - N/A   Overcast
11:30 PM 26.6 °F 19.1 °F 24.8 °F 93% 29.92 in 5.6 mi NNE 6.9 mph - N/A   Overcast